TimeCST,TemperatureF,Dew PointF,Humidity,Sea Level PressureIn,VisibilityMPH,Wind Direction,Wind SpeedMPH,Gust SpeedMPH,PrecipitationIn,Events,Conditions,WindDirDegrees,DateUTC
12:13 AM,30.2,28.4,93,29.76,5.0,ENE,11.5,-,N/A,,Overcast,60,2013-12-04 06:13:00
12:33 AM,28.4,28.4,100,29.76,5.0,ENE,10.4,-,N/A,,Overcast,60,2013-12-04 06:33:00
12:53 AM,28.4,28.4,100,29.77,4.0,ENE,10.4,-,N/A,,Overcast,60,2013-12-04 06:53:00
1:14 AM,28.4,28.4,100,29.75,4.0,ENE,11.5,-,N/A,,Overcast,60,2013-12-04 07:14:00
1:33 AM,28.4,28.4,100,29.75,10.0,ENE,13.8,-,N/A,,Overcast,70,2013-12-04 07:33:00
1:53 AM,28.4,26.6,93,29.75,10.0,ENE,12.7,-,N/A,,Overcast,70,2013-12-04 07:53:00
2:14 AM,28.4,26.6,93,29.75,10.0,ENE,12.7,-,N/A,,Overcast,60,2013-12-04 08:14:00
2:33 AM,28.4,26.6,93,29.76,10.0,ENE,12.7,-,N/A,,Overcast,70,2013-12-04 08:33:00
2:53 AM,26.6,26.6,100,29.74,2.5,ENE,10.4,-,N/A,Snow,Light Snow,60,2013-12-04 08:53:00
3:13 AM,26.6,26.6,100,29.74,1.8,ENE,11.5,-,N/A,Snow,Light Snow,60,2013-12-04 09:13:00
3:33 AM,26.6,26.6,100,29.73,3.0,ENE,10.4,-,N/A,Snow,Light Snow,60,2013-12-04 09:33:00
3:54 AM,26.6,26.6,100,29.73,1.8,ENE,9.2,-,N/A,Snow,Light Snow,60,2013-12-04 09:54:00
4:13 AM,26.6,26.6,100,29.73,1.5,NE,6.9,-,N/A,Snow,Light Snow,50,2013-12-04 10:13:00
4:33 AM,26.6,26.6,100,29.73,2.0,NE,8.1,-,N/A,Snow,Light Snow,50,2013-12-04 10:33:00
4:53 AM,26.6,26.6,100,29.72,1.8,NE,6.9,-,N/A,Snow,Light Snow,40,2013-12-04 10:53:00
5:13 AM,26.6,26.6,100,29.72,2.0,NNE,5.8,-,0.01,Snow,Light Snow,20,2013-12-04 11:13:00
5:33 AM,26.6,26.6,100,29.73,2.5,NNE,5.8,-,0.01,Snow,Light Snow,20,2013-12-04 11:33:00
5:53 AM,26.6,24.8,93,29.71,2.5,NNE,8.1,-,0.01,Snow,Light Snow,30,2013-12-04 11:53:00
6:14 AM,26.6,24.8,93,29.71,2.5,NNE,8.1,-,N/A,Snow,Light Snow,30,2013-12-04 12:14:00
6:33 AM,26.6,24.8,93,29.69,1.8,NE,9.2,-,N/A,Snow,Light Snow,40,2013-12-04 12:33:00
6:53 AM,26.6,24.8,93,29.68,1.8,NE,10.4,-,N/A,Snow,Light Snow,40,2013-12-04 12:53:00
7:13 AM,26.6,24.8,93,29.68,2.5,NNE,9.2,-,N/A,Snow,Light Snow,30,2013-12-04 13:13:00
7:33 AM,26.6,24.8,93,29.67,4.0,NNE,8.1,-,N/A,Snow,Light Snow,30,2013-12-04 13:33:00
7:53 AM,26.6,24.8,93,29.67,2.0,NE,9.2,-,N/A,Snow,Light Snow,40,2013-12-04 13:53:00
8:13 AM,26.6,24.8,93,29.68,1.0,NNE,6.9,-,N/A,Snow,Light Snow,30,2013-12-04 14:13:00
8:34 AM,26.6,24.8,93,29.67,4.0,NNE,8.1,-,N/A,Snow,Light Snow,30,2013-12-04 14:34:00
8:53 AM,26.6,24.8,93,29.66,1.5,NNE,6.9,-,N/A,Snow,Light Snow,30,2013-12-04 14:53:00
9:13 AM,26.6,24.8,93,29.66,1.2,North,5.8,-,N/A,Snow,Light Snow,10,2013-12-04 15:13:00
9:33 AM,24.8,24.8,100,29.65,3.0,North,6.9,-,N/A,Snow,Light Snow,10,2013-12-04 15:33:00
9:53 AM,24.8,24.8,100,29.63,10.0,NNE,8.1,-,0.01,,Mostly Cloudy,20,2013-12-04 15:53:00
10:14 AM,24.8,23.0,93,29.62,10.0,NNE,10.4,-,N/A,,Mostly Cloudy,20,2013-12-04 16:14:00
10:33 AM,24.8,23.0,93,29.63,5.0,North,8.1,-,N/A,Snow,Light Snow,360,2013-12-04 16:33:00
10:53 AM,24.8,23.0,93,29.62,1.2,North,9.2,-,N/A,Snow,Light Snow,10,2013-12-04 16:53:00
11:14 AM,24.8,23.0,93,29.61,1.8,North,6.9,-,N/A,Snow,Light Snow,360,2013-12-04 17:14:00
11:33 AM,24.8,23.0,93,29.58,1.8,North,8.1,-,N/A,Snow,Light Snow,10,2013-12-04 17:33:00
11:53 AM,24.8,21.2,86,29.58,2.5,North,8.1,-,N/A,Snow,Light Snow,350,2013-12-04 17:53:00
12:13 PM,24.8,21.2,86,29.57,2.0,North,9.2,-,N/A,Snow,Light Snow,360,2013-12-04 18:13:00
12:33 PM,24.8,21.2,86,29.58,1.0,North,6.9,-,N/A,Snow,Light Snow,350,2013-12-04 18:33:00
12:53 PM,24.8,21.2,86,29.58,0.8,NNW,9.2,-,0.01,Snow,Light Snow,340,2013-12-04 18:53:00
1:13 PM,23.0,21.2,93,29.56,1.0,North,9.2,-,N/A,Snow,Light Snow,350,2013-12-04 19:13:00
1:33 PM,21.2,19.4,93,29.54,0.8,North,11.5,-,N/A,Snow,Light Snow,350,2013-12-04 19:33:00
1:53 PM,21.2,19.4,93,29.55,1.0,North,8.1,-,N/A,Snow,Light Snow,350,2013-12-04 19:53:00
2:13 PM,21.2,19.4,93,29.55,0.8,NNW,9.2,-,N/A,Snow,Light Snow,330,2013-12-04 20:13:00
2:33 PM,21.2,19.4,93,29.52,0.5,North,9.2,-,0.01,Snow,Light Snow,350,2013-12-04 20:33:00
2:53 PM,21.2,19.4,93,29.52,2.0,NNW,9.2,-,0.01,Snow,Light Snow,330,2013-12-04 20:53:00
3:13 PM,21.2,17.6,86,29.52,4.0,NW,9.2,-,N/A,Snow,Light Snow,320,2013-12-04 21:13:00
3:33 PM,21.2,17.6,86,29.54,7.0,WNW,12.7,18.4,N/A,Snow,Light Snow,300,2013-12-04 21:33:00
3:53 PM,21.2,17.6,86,29.56,10.0,WNW,12.7,-,N/A,Snow,Light Snow,300,2013-12-04 21:53:00
4:13 PM,19.4,17.6,93,29.55,10.0,NW,11.5,-,N/A,,Mostly Cloudy,310,2013-12-04 22:13:00
4:33 PM,19.4,17.6,93,29.55,10.0,NW,11.5,-,N/A,,Mostly Cloudy,310,2013-12-04 22:33:00
4:53 PM,19.4,17.6,93,29.56,10.0,WNW,15.0,20.7,N/A,Snow,Light Snow,290,2013-12-04 22:53:00
5:13 PM,19.4,17.6,93,29.56,5.0,West,13.8,-,N/A,Snow,Light Snow,280,2013-12-04 23:13:00
5:33 PM,17.6,15.8,93,29.57,7.0,West,13.8,-,N/A,,Overcast,280,2013-12-04 23:33:00
5:53 PM,17.6,15.8,93,29.58,10.0,WNW,18.4,-,N/A,Snow,Light Snow,290,2013-12-04 23:53:00
6:13 PM,15.8,14.0,93,29.58,10.0,West,15.0,20.7,N/A,Snow,Light Snow,280,2013-12-05 00:13:00
6:33 PM,15.8,12.2,86,29.57,5.0,WNW,17.3,-,N/A,Snow,Light Snow,290,2013-12-05 00:33:00
6:53 PM,14.0,12.2,93,29.58,5.0,West,20.7,25.3,N/A,Snow,Light Snow,280,2013-12-05 00:53:00
7:13 PM,14.0,10.4,86,29.59,5.0,West,16.1,23.0,N/A,Snow,Light Snow,280,2013-12-05 01:13:00
7:33 PM,14.0,10.4,86,29.59,4.0,West,18.4,21.9,N/A,Snow,Light Snow,280,2013-12-05 01:33:00
7:53 PM,14.0,10.4,86,29.60,4.0,West,18.4,25.3,N/A,Snow,Light Snow,280,2013-12-05 01:53:00
8:13 PM,12.2,10.4,92,29.60,3.0,West,20.7,27.6,N/A,Snow,Light Snow,280,2013-12-05 02:13:00
8:33 PM,10.4,8.6,92,29.61,4.0,West,21.9,26.5,N/A,Snow,Light Snow,280,2013-12-05 02:33:00
8:53 PM,10.4,6.8,85,29.63,4.0,West,19.6,27.6,N/A,Snow,Light Snow,270,2013-12-05 02:53:00
9:13 PM,32.0,-9999,N/A,29.64,3.0,West,20.7,-,N/A,Snow,Light Snow,280,2013-12-05 03:13:00
9:33 PM,10.4,6.8,85,29.64,3.0,West,20.7,29.9,N/A,Snow,Light Snow,280,2013-12-05 03:33:00
9:53 PM,8.6,6.8,92,29.65,3.0,West,20.7,26.5,N/A,Snow,Light Snow,280,2013-12-05 03:53:00
10:13 PM,8.6,5.0,85,29.66,2.5,West,21.9,29.9,N/A,Snow,Light Snow,280,2013-12-05 04:13:00
10:33 PM,8.6,5.0,85,29.66,2.5,West,19.6,33.4,N/A,Snow,Light Snow,280,2013-12-05 04:33:00
10:53 PM,6.8,3.2,85,29.66,3.0,West,20.7,29.9,N/A,,Overcast,280,2013-12-05 04:53:00
11:13 PM,6.8,3.2,85,29.68,3.0,West,23.0,29.9,N/A,,Overcast,280,2013-12-05 05:13:00
11:33 PM,5.0,1.4,85,29.69,3.0,West,20.7,28.8,N/A,,Overcast,280,2013-12-05 05:33:00
11:53 PM,5.0,1.4,85,29.70,3.0,West,21.9,29.9,N/A,,Overcast,280,2013-12-05 05:53:00